SCP
0 0 0 0 0 0 0 0 0 0 0 0 0 0 0 0 0 0 0 0 0 0 0 0 0 0 0 0 0 0 0 0 0 0 0 0 0 0 0 0 0 0 0
0 0 0 0 0 0 0 0 0 0 0 0 0 0 0 0 0 0 0 0 0 0 0 0 0 0 0 0 0 0 0 0 0 0 0 0 0 0 0 0 0 0 0
0 0 0 0 0 0 0 0 0 0 0 0 0 0 0 0 0 0 0 0 0 0 0 0 0 0 0 0 0 0 0 0 0 0 0 0 0 0 0 0 0 0 0
0 0 0 0 0 0 0 0 0 0 0 0 0 0 0 0 0 0 0 0 0 0 0 0 0 0 0 0 0 0 0 0 0 0 0 0 0 0 0 0 0 0 0
0 0 0 0 0 0 0 0 0 0 0 0 0 0 0 0 0 0 0 0 0 0 0 0 0 0 0 0 0 0 0 0 0 0 0 0 0 0 0 0 0 0 0
0 0 0 0 0 0 0 0 0 0 0 0 0 0 0 0 0 0 0 0 0 0 0 0 0 0 0 0 0 0 0 0 0 0 0 0 0 0 0 0 0 0 0
0 0 0 0 0 0 0 0 0 0 0 0 0 0 0 0 0 0 0 0 0 0 0 0 0 0 0 0 0 0 0 0 0 0 0 0 0 0 0 0 0 0 0
0 0 0 0 0 0 0 0 0 0 0 0 0 0 0 0 0 0 0 0 0 0 0 0 0 0 0 0 0 0 0 0 0 0 0 0 0 0 0 0 0 0 0
0 0 0 0 0 0 0 0 0 0 0 0 0 0 0 0 0 0 0 0 0 0 0 0 0 0 0 0 0 0 0 0 0 0 0 0 0 0 0 0 0 0 0
0 0 0 0 0 0 0 0 0 0 0 0 0 0 0 0 0 0 0 0 0 0 0 0 0 0 0 0 0 0 0 0 0 0 0 0 0 0 0 0 0 0 0
0 0 0 0 0 0 0 0 0 0 0 0 0 0 0 0 0 0 0 0 0 0 0 0 0 0 0 0 0 0 0 0 0 0 0 0 0 0 0 0 0 0 0
0 0 0 0 0 0 0 0 0 0 0 0 0 0 0 0 0 0 0 0 0 0 0 0 0 0 0 0 0 0 0 0 0 0 0 0 0 0 0 0 0 0 0
0 0 0 0 0 0 0 0 0 0 0 0 0 0 0 0 0 0 0 0 0 0 0 0 0 0 0 -0 -0 -0 0 0 0 0 0 0 0 0 0 0 0 0 0
0 0 0 0 0 0 0 0 0 0 0 0 0 0 0 0 0 0 0 0 0 0 0 0 0 0 0 0 0 0 0 0 0 0 0 0 0 0 0 0 0 0 0
0 0 0 0 0 0 0 0 0 0 0 0 0 0 0 0 0 0 0 0 0 0 0 0 0 0 0 0 0 0 0 0 0 0 0 0 0 0 0 0 0 0 0
0 0 0 0 0 0 0 0 0 0 0 0 0 0 0 0 0 0 0 0 0 0 0 0 0 0 0 0 0 0 0 0 0 0 0 0 0 0 0 0 0 0 0
0 0 0 0 0 0 0 0 0 0 0 0 0 0 0 0 0 0 0 0 0 0 0 0 0 0 0 0 0 0 0 0 0 0 0 0 0 0 0 0 0 0 0
0 0 0 0 0 0 0 0 0 0 0 0 0 0 0 0 0 0 0 0 0 0 0 0 0 0 0 0 0 0 0 0 0 0 0 0 0 0 0 0 0 0 0
0 0 0 0 0 0 0 0 0 0 0 0 0 0 0 0 0 0 0 0 0 0 0 0 0 0 0 0 0 0 0 0 0 0 0 0 0 0 0 0 0 0 0
0 0 0 0 0 0 0 0 0 0 0 0 0 0 0 0 0 0 0 0 0 0 0 0 0 0 0 0 0 0 0 0 0 0 0 0 0 0 0 0 0 0 0
0 0 0 0 0 0 0 0 0 0 0 0 0 0 0 0 0 0 0 0 0 0 0 0 0 0 0 0 0 0 0 0 0 0 0 0 0 0 0 0 0 0 0
0 0 0 0 0 0 0 0 0 0 0 0 0 0 0 0 0 0 0 0 0 0 0 0 0 0 0 0 0 0 0 0 0 0 0 0 0 0 0 0 0 0 0
0 0 0 0 0 0 0 0 0 0 0 0 0 0 0 0 0 0 0 0 0 0 0 0 0 0 0 0 0 0 0 0 0 0 0 0 0 0 0 0 0 0 0
0 0 0 0 0 0 0 0 0 0 0 0 0 0 0 0 0 0 0 0 0 0 0 0 0 0 0 0 0 0 0 0 0 0 0 0 0 0 0 0 0 0 0
0 0 0 0 0 0 0 0 0 0 0 0 0 0 0 0 0 0 0 0 0 0 0 0 0 0 0 0 0 0 0 0 0 0 0 0 0 0 0 0 0 0 0
0 0 0 0 0 0 0 0 0 0 0 0 0 0 0 0 0 0 0 0 0 0 0 0 0 0 0 0 0 0 0 0 0 0 0 0 0 0 0 0 0 0 0
Wind_Speed
6 7 8 9 9 11 12 13 13 12 8 6 6 8 9 9 10 11 14 15 15 14 13 9 10 9 7 6 5 3 3 3 3 2 3 3 4 5 4 3 3 4 4
6 8 8 9 10 10 10 11 12 11 10 6 5 5 5 7 8 9 13 15 15 14 12 12 10 10 8 9 8 5 3 3 3 3 3 5 5 4 2 2 3 3 2
4 5 7 8 8 10 10 9 10 11 11 8 6 6 5 5 7 10 10 13 14 14 13 13 11 10 9 9 9 7 5 3 2 1 2 3 4 5 3 2 2 3 3
2 3 4 6 7 7 7 8 10 12 11 9 11 14 12 10 6 5 6 9 12 13 13 12 12 10 9 9 9 8 5 4 3 2 0 2 2 3 6 4 3 3 4
3 2 3 4 5 5 6 7 9 12 11 11 11 12 11 7 5 5 8 8 9 11 11 11 10 10 9 10 10 9 8 6 4 3 3 2 2 3 4 7 5 4 3
4 3 3 3 5 5 6 6 10 11 9 10 11 12 11 8 9 9 8 6 6 7 10 9 9 8 8 8 8 8 8 7 6 5 3 3 3 3 4 6 8 7 5
6 4 4 3 4 4 5 5 8 9 7 9 9 9 9 9 9 7 6 6 5 5 8 8 7 6 6 6 7 7 7 7 7 5 4 4 4 4 5 7 8 9 6
6 6 5 5 4 4 4 5 7 7 6 7 7 6 7 5 5 5 5 4 3 3 5 5 6 6 6 7 6 5 5 5 6 7 6 5 5 4 4 4 6 10 7
8 8 7 6 6 5 5 5 6 6 5 5 6 6 5 5 5 4 4 3 2 3 4 4 5 5 5 5 5 4 5 5 5 6 6 5 5 5 5 5 4 5 9
8 8 7 7 6 5 5 4 5 5 4 4 4 4 4 4 4 3 4 4 3 4 4 5 5 5 5 5 5 5 5 6 6 5 7 6 5 5 5 5 5 5 7
11 10 8 8 7 6 5 5 5 4 4 4 3 3 3 3 3 3 3 3 3 4 5 5 6 6 6 6 6 6 7 7 8 7 8 8 7 7 6 5 6 6 6
9 9 9 8 7 7 6 6 6 5 5 4 3 3 2 2 2 2 2 3 3 4 4 4 5 6 7 6 7 9 9 9 10 10 9 10 8 9 7 7 8 8 7
9 9 10 10 9 8 7 7 7 7 5 4 4 3 2 1 1 1 2 2 3 3 4 4 5 6 7 7 8 8 9 10 11 12 12 12 10 11 8 8 10 9 10
9 10 11 11 10 9 8 8 7 6 5 5 5 4 3 2 1 0 1 2 3 4 5 6 6 7 8 9 9 10 11 12 13 13 13 13 12 13 12 11 11 10 11
9 11 12 11 10 8 8 7 7 6 6 6 5 5 4 3 2 1 1 2 3 5 6 6 7 7 7 7 11 13 13 14 15 14 14 14 17 21 18 15 13 12 11
10 10 10 10 10 10 9 8 7 7 6 7 6 5 4 3 2 1 2 3 4 5 6 6 7 8 8 15 20 17 14 15 16 16 15 15 16 19 23 26 25 23 17
8 9 10 10 10 9 9 9 8 6 6 7 6 5 5 3 2 1 3 4 5 6 6 7 7 9 12 19 21 22 17 15 14 15 15 13 13 15 16 19 23 22 24
8 8 8 8 8 7 7 7 5 6 7 7 6 6 5 3 1 1 2 4 4 5 6 8 9 10 12 20 22 23 16 13 13 14 15 16 16 15 18 17 16 17 16
7 7 8 7 7 7 7 6 6 6 7 8 7 6 5 3 1 2 3 3 4 6 7 7 7 9 13 19 22 22 12 11 14 14 15 16 16 22 26 20 16 17 16
6 7 6 5 6 7 6 7 7 7 9 8 7 6 5 3 2 2 3 3 4 6 7 8 8 10 11 18 22 22 9 10 11 12 14 18 22 25 27 19 16 17 16
8 7 6 6 8 6 7 8 8 10 7 6 6 5 3 2 2 2 2 3 5 6 7 9 9 9 11 16 20 21 11 11 12 12 12 13 25 29 29 27 19 22 23
8 8 7 8 7 6 8 9 9 6 6 6 5 4 2 1 1 2 3 4 5 6 7 8 9 8 9 13 17 23 22 22 14 13 13 15 28 31 32 26 25 31 27
9 8 8 8 6 6 8 10 6 7 7 6 4 3 2 2 2 3 4 4 4 5 6 6 8 8 8 10 19 22 24 26 17 14 23 28 32 30 22 24 29 23 13
9 8 7 8 8 7 7 6 7 8 7 6 4 3 3 3 3 3 4 4 4 5 6 6 8 9 8 8 8 9 12 16 16 13 16 23 25 22 21 17 15 11 11
8 7 8 10 10 7 6 6 7 8 6 5 4 4 4 4 3 4 5 6 7 8 8 8 8 8 8 11 21 17 12 12 12 13 8 8 10 10 10 10 10 10 11
7 6 8 8 6 6 7 6 6 7 6 5 5 4 3 3 3 4 5 10 12 16 17 17 13 9 14 20 21 22 23 23 22 12 7 9 9 10 11 12 12 11 11
Wind_Direction
15 11 8 6 14 23 31 33 38 31 37 46 52 56 53 46 46 44 39 39 37 36 38 35 32 29 34 28 23 22 19 15 6 333 314 298 262 258 267 275 284 290 298
22 15 13 16 22 26 29 37 39 39 42 51 61 76 80 58 54 47 43 39 39 37 38 36 34 29 31 30 25 23 16 15 19 359 335 326 329 341 319 287 260 275 292
51 18 16 19 24 31 27 40 43 46 44 48 69 74 63 57 47 41 42 38 40 41 40 38 37 32 32 28 21 17 19 1 1 22 348 334 319 322 310 324 304 281 271
76 45 32 32 31 27 26 43 52 54 49 53 70 76 76 71 51 45 46 43 41 40 38 37 37 36 33 28 20 18 10 10 358 349 5 236 266 296 309 309 303 288 274
135 91 59 52 41 34 41 48 61 60 54 60 69 78 78 76 64 51 48 42 38 38 35 36 35 33 30 26 22 19 19 16 5 347 326 308 261 228 266 294 304 306 278
161 129 89 75 61 48 52 57 71 65 58 67 70 78 82 78 68 54 47 38 32 32 31 32 31 30 26 22 17 15 18 15 5 353 342 328 311 305 282 288 300 294 278
172 165 146 119 98 81 73 73 82 76 66 72 73 77 81 78 72 64 53 43 32 25 19 23 23 23 17 16 13 13 9 7 360 348 337 324 302 295 289 288 294 294 289
185 183 175 161 143 126 111 101 94 91 82 82 81 79 82 82 78 71 67 55 40 26 11 15 17 14 10 10 6 5 356 351 342 336 327 314 305 302 296 289 296 300 295
192 189 184 178 171 157 146 134 121 113 107 103 99 90 86 87 86 80 73 62 38 21 12 9 7 1 359 356 352 346 335 328 320 313 307 301 297 294 290 286 277 279 294
194 191 189 188 185 177 165 155 143 138 136 126 118 112 102 94 88 74 54 39 21 11 3 2 357 350 346 342 337 324 313 309 304 297 295 292 290 290 285 282 278 263 265
197 192 192 193 189 182 178 175 171 162 160 155 141 125 110 90 72 56 34 14 3 358 353 346 342 338 335 333 326 316 309 305 301 295 291 287 287 285 283 279 276 272 264
196 190 190 189 190 192 193 192 191 190 190 181 165 153 136 110 75 39 10 357 348 342 335 331 330 327 328 322 316 311 311 303 301 300 294 289 287 279 278 277 274 272 265
194 190 191 194 196 198 198 200 202 205 200 186 179 177 175 162 108 19 0 352 342 336 337 338 331 327 324 318 310 302 301 298 297 297 296 295 292 289 282 274 275 275 274
198 195 197 198 199 200 201 204 210 208 199 189 188 194 193 176 158 68 14 350 343 340 342 336 329 327 323 317 312 313 310 304 299 298 297 296 293 292 291 285 279 277 276
205 202 201 199 200 203 207 210 215 208 194 189 193 196 173 153 140 91 11 346 347 344 335 331 328 327 319 312 317 314 307 304 303 301 299 298 298 297 294 290 288 285 281
212 205 201 199 201 205 208 211 216 208 186 189 192 174 163 158 142 54 1 347 343 338 331 327 322 318 315 314 315 313 308 304 303 303 303 301 295 294 295 294 292 289 286
206 199 199 201 203 205 205 210 213 194 183 188 179 171 167 163 137 23 355 342 333 328 323 317 315 309 305 310 312 312 308 302 300 299 298 297 297 297 293 291 290 289 287
198 198 197 202 208 206 206 206 192 182 184 182 177 171 167 163 136 18 334 323 317 317 312 308 303 298 299 308 311 311 306 298 295 293 293 293 292 291 290 289 285 284 283
194 196 197 198 201 205 199 183 185 183 185 189 182 172 165 162 163 305 302 303 304 302 298 292 292 294 298 306 308 307 301 295 295 293 289 287 286 286 288 287 283 283 281
200 201 199 195 205 212 182 180 194 192 202 194 172 156 155 163 214 263 283 283 290 290 294 294 293 290 288 296 304 307 298 293 290 287 283 282 283 284 287 284 280 278 276
210 207 197 202 216 200 172 195 202 210 198 152 141 146 151 171 227 259 268 281 287 290 289 290 288 282 282 291 301 304 299 291 291 291 290 287 289 289 288 285 278 274 276
220 211 207 222 221 186 181 204 213 192 141 140 147 157 167 212 230 254 271 272 276 285 284 285 288 281 282 287 296 302 303 303 298 293 290 287 290 291 291 288 281 284 286
225 217 212 226 220 191 188 208 198 145 143 147 165 183 213 233 237 246 264 267 259 267 281 283 288 291 285 286 299 304 304 302 300 292 294 298 301 303 300 295 294 292 284
231 225 213 221 226 202 194 192 151 144 145 166 185 200 219 237 235 241 246 247 248 255 264 271 277 283 286 289 292 290 296 302 303 299 303 311 313 311 309 307 304 296 286
233 219 213 223 225 190 175 155 146 144 157 176 192 209 218 231 249 250 242 250 238 236 248 253 260 284 298 299 308 313 311 310 311 327 334 325 319 315 312 308 305 300 295
232 222 219 219 206 167 162 151 148 154 164 186 201 207 216 227 242 258 274 275 276 278 278 283 290 297 300 310 318 322 326 333 337 345 329 318 315 314 313 312 310 306 300